User: anonymous   Login
Location: Banksville Park
(38.5557°N, 75.1182°W)
Time: 02:41:42
(UTC+00:00)
Language:

Cosmos 1025 Rocket - Orbit

View from above orbital plane
View from above orbital plane
View from above satellite
View from above satellite

Ground track
Ground track

The orbit data is extracted from the following two-line orbital elements,

1 10974U 78067B   20334.61114796 +.00000143 +00000-0 +12980-4 0  9998
2 10974 082.4845 054.4160 0018746 120.5644 239.7426 14.87371650273942
Epoch (UTC): 29 November 2020 14:40:03
Eccentricity: 0.0018746
inclination: 82.4845°
perigee height: 593 km
apogee height: 619 km
right ascension of ascending node: 54.4160°
argument of perigee: 120.5644°
revolutions per day: 14.87371650
mean anomaly at epoch: 239.7426°
orbit number at epoch: 27394

The dashed part of the orbit path shows where the satellite is in the earth's shadow,  

DLR